"Timestamp","TZ","WindDir_Mean (deg)","WindSpd_Mean (km/h)","WindSpd_Min (km/h)","WindSpd_Max (km/h)","Temp_Mean (deg)","RH_Mean (%)","MSLP_Mean (hPa)","Rain_Acc (mm)","Rain_Intensity (mm/h)","Hail_Acc (hits/cm2)","Hail_Intensity (hits/cm2hr)","Solar_Mean (W/m2)"
2022/06/13 00:00:00.011,n,259,6.48,5.76,6.84,11.9,51,1017.72,0,0,0,0,0.02964
2022/06/13 00:01:00.000,n,252,4.32,2.88,5.04,11.9,51.3,1017.72,0,0,0,0,0.033989
2022/06/13 00:02:00.000,n,277,6.48,5.4,7.92,11.9,51.1,1017.72,0,0,0,0,0.028763
2022/06/13 00:03:00.003,n,243,5.04,3.96,6.12,11.9,51.1,1017.72,0,0,0,0,0.031395
2022/06/13 00:04:00.000,n,259,6.84,5.04,7.92,11.9,51.1,1017.72,0,0,0,0,0.031395
2022/06/13 00:05:00.000,n,210,2.88,2.52,3.24,11.8,51.1,1017.72,0,0,0,0,0.027885
2022/06/13 00:06:00.000,n,245,8.64,6.84,9.36,11.8,51.1,1017.72,0,0,0,0,0.027885
2022/06/13 00:07:00.007,n,222,3.24,1.8,5.4,11.8,51.1,1017.72,0,0,0,0,0.02964
2022/06/13 00:08:00.005,n,253,5.76,2.16,7.56,11.8,51.2,1017.82,0,0,0,0,0.030479
2022/06/13 00:09:00.003,n,275,5.04,3.24,6.12,11.8,51.5,1017.82,0,0,0,0,0.028763
2022/06/13 00:10:00.000,n,129,0.72,0.36,1.8,11.8,51.4,1017.82,0,0,0,0,0.032234
2022/06/13 00:11:00.000,n,249,9.36,9,9.72,11.8,51,1017.82,0,0,0,0,0.033112
2022/06/13 00:12:00.000,n,249,6.12,3.96,7.56,11.8,51.1,1017.82,0,0,0,0,0.033112
2022/06/13 00:13:00.000,n,267,5.4,5.04,5.4,11.8,51.4,1017.82,0,0,0,0,0.02964
2022/06/13 00:14:00.005,n,266,9.72,8.28,11.52,11.8,51.2,1017.82,0,0,0,0,0.030479
2022/06/13 00:15:00.003,n,237,7.2,5.76,7.92,11.8,51.3,1017.82,0,0,0,0,0.030479
2022/06/13 00:16:00.000,n,278,8.64,7.56,9.72,11.8,51.3,1017.82,0,0,0,0,0.02964
2022/06/13 00:17:00.014,n,259,9.36,7.92,11.16,11.8,51.2,1017.82,0,0,0,0,0.033989
2022/06/13 00:18:00.011,n,244,7.56,6.48,9,11.8,51.2,1017.82,0,0,0,0,0.036583
2022/06/13 00:19:00.000,n,267,10.08,7.56,11.52,11.8,51.1,1017.82,0,0,0,0,0.032234
2022/06/13 00:20:00.000,n,252,6.84,5.76,7.92,11.8,51,1017.92,0,0,0,0,0.026131
2022/06/13 00:21:00.000,n,240,10.8,9,11.88,11.8,51,1017.92,0,0,0,0,0.030479
2022/06/13 00:22:00.000,n,275,6.48,5.4,7.2,11.8,51.1,1017.82,0,0,0,0,0.030479
2022/06/13 00:23:00.000,n,254,10.08,9.72,10.08,11.8,51,1017.82,0,0,0,0,0.02964
2022/06/13 00:24:00.008,n,273,10.8,9.36,12.96,11.8,51.2,1017.82,0,0,0,0,0.028763
2022/06/13 00:25:00.005,n,264,13.32,12.96,14.04,11.8,50.8,1017.82,0,0,0,0,0.030479
2022/06/13 00:26:00.003,n,276,7.92,6.84,8.28,11.8,51.1,1017.82,0,0,0,0,0.02964
2022/06/13 00:27:00.001,n,266,9.36,9,10.08,11.8,51.2,1017.82,0,0,0,0,0.028763
2022/06/13 00:28:00.000,n,252,11.16,9,12.96,11.7,51.3,1017.92,0,0,0,0,0.02964
2022/06/13 00:29:00.000,n,262,10.08,8.28,12.24,11.7,51.4,1017.92,0,0,0,0,0.028763
2022/06/13 00:30:00.000,n,259,6.84,5.4,9.36,11.7,51.5,1017.92,0,0,0,0,0.026131
2022/06/13 00:31:00.005,n,248,12.6,10.8,13.32,11.7,51.3,1017.92,0,0,0,0,0.025253
2022/06/13 00:32:00.002,n,264,15.12,14.76,15.48,11.7,51.2,1017.92,0,0,0,0,0.028763
2022/06/13 00:33:00.000,n,264,13.68,11.16,17.28,11.7,51.2,1017.92,0,0,0,0,0.027008
2022/06/13 00:34:00.000,n,257,12.6,11.88,14.04,11.7,51.3,1017.82,0,0,0,0,0.024414
2022/06/13 00:35:00.010,n,261,5.76,4.32,7.56,11.7,51.7,1017.82,0,0,0,0,0.028763
2022/06/13 00:36:00.005,n,287,11.16,6.48,14.04,11.6,51.7,1017.82,0,0,0,0,0.033112
2022/06/13 00:37:00.002,n,233,10.08,7.2,12.96,11.6,51.8,1017.82,0,0,0,0,0.034828
2022/06/13 00:38:00.000,n,249,10.440002,8.64,11.88,11.6,51.7,1017.82,0,0,0,0,0.033112
2022/06/13 00:39:00.000,n,256,9,6.84,10.08,11.6,51.9,1017.82,0,0,0,0,0.030479
2022/06/13 00:40:00.000,n,281,10.08,9,11.16,11.6,51.9,1017.82,0,0,0,0,0.031357
2022/06/13 00:41:00.006,n,293,5.04,4.32,5.4,11.6,52.1,1017.72,0,0,0,0,0.031357
2022/06/13 00:42:00.003,n,258,18,14.4,21.96,11.6,51.6,1017.82,0,0,0,0,0.030479
2022/06/13 00:43:00.000,n,256,14.4,12.96,15.84,11.6,51.8,1017.82,0,0,0,0,0.030479
2022/06/13 00:44:00.013,n,257,15.12,8.28,20.16,11.6,51.7,1017.72,0,0,0,0,0.031357
2022/06/13 00:45:00.010,n,249,13.68,12.6,14.4,11.6,51.7,1017.82,0,0,0,0,0.033989
2022/06/13 00:46:00.000,n,260,9,7.56,10.8,11.6,52,1017.82,0,0,0,0,0.027008
2022/06/13 00:47:00.003,n,262,13.32,11.88,14.76,11.6,52,1017.82,0,0,0,0,0.02964
2022/06/13 00:48:00.000,n,247,6.12,2.88,9,11.6,52.1,1017.82,0,0,0,0,0.028763
2022/06/13 00:49:00.000,n,243,10.8,9.72,12.24,11.6,52.2,1017.92,0,0,0,0,0.02964
2022/06/13 00:50:00.000,n,263,7.2,6.84,7.92,11.6,52.3,1017.92,0,0,0,0,0.030479
2022/06/13 00:51:00.007,n,279,10.08,8.28,11.16,11.6,52.3,1017.92,0,0,0,0,0.025253
2022/06/13 00:52:00.005,n,256,10.08,6.12,14.4,11.6,52.3,1017.92,0,0,0,0,0.02964
2022/06/13 00:53:00.001,n,262,16.56,13.68,19.08,11.6,52.2,1017.92,0,0,0,0,0.02964
2022/06/13 00:54:00.015,n,256,6.84,5.04,8.64,11.6,52.4,1017.92,0,0,0,0,0.028763
2022/06/13 00:55:00.000,n,269,7.92,4.68,10.08,11.6,52.2,1017.82,0,0,0,0,0.02964
2022/06/13 00:56:00.000,n,283,5.4,3.96,7.92,11.6,52.4,1017.82,0,0,0,0,0.02964
2022/06/13 00:57:00.000,n,247,14.04,13.32,14.76,11.6,52.1,1017.82,0,0,0,0,0.027008
2022/06/13 00:58:00.003,n,257,11.52,11.16,11.88,11.6,52.4,1017.92,0,0,0,0,0.031357
2022/06/13 00:59:00.001,n,239,7.56,6.48,9,11.5,52.5,1017.92,0,0,0,0,0.028763
2022/06/13 01:00:00.000,n,292,3.96,1.44,6.84,11.5,52.7,1017.92,0,0,0,0,0.02964
2022/06/13 01:01:00.010,n,267,10.8,9.36,11.52,11.5,52.4,1017.92,0,0,0,0,0.027008
2022/06/13 01:02:00.007,n,225,7.92,5.4,9.72,11.5,52.6,1018.02,0,0,0,0,0.027008
2022/06/13 01:03:00.006,n,268,10.08,9.36,10.440002,11.5,52.4,1018.02,0,0,0,0,0.025253
2022/06/13 01:04:00.000,n,246,8.28,7.92,9,11.5,52.6,1018.02,0,0,0,0,0.028763
2022/06/13 01:05:00.000,n,267,7.92,7.2,8.28,11.5,52.7,1017.92,0,0,0,0,0.026131
2022/06/13 01:06:00.000,n,270,11.16,7.92,13.32,11.5,52.3,1017.92,0,0,0,0,0.028763
2022/06/13 01:07:00.000,n,255,2.52,0.72,3.96,11.5,52.5,1017.92,0,0,0,0,0.027008
2022/06/13 01:08:00.007,n,265,8.64,7.92,9.36,11.5,52.7,1017.92,0,0,0,0,0.027008
2022/06/13 01:09:00.006,n,277,6.12,5.04,6.48,11.5,52.8,1017.92,0,0,0,0,0.024414
2022/06/13 01:10:00.003,n,238,10.08,9,11.16,11.5,52.9,1017.92,0,0,0,0,0.027008
2022/06/13 01:11:00.000,n,279,8.28,6.48,10.08,11.5,53.2,1017.92,0,0,0,0,0.021782
2022/06/13 01:12:00.014,n,231,9.72,8.28,10.440002,11.5,52.7,1017.92,0,0,0,0,0.025253
2022/06/13 01:13:00.000,n,278,6.84,5.76,7.92,11.5,52.8,1017.82,0,0,0,0,0.023537
2022/06/13 01:14:00.000,n,247,14.4,12.96,15.48,11.5,52.7,1017.82,0,0,0,0,0.026131
2022/06/13 01:15:00.005,n,309,5.76,3.24,7.56,11.5,52.9,1017.82,0,0,0,0,0.024414
2022/06/13 01:16:00.003,n,248,17.64,14.04,20.16,11.5,52.6,1017.72,0,0,0,0,0.029602
2022/06/13 01:17:00.002,n,263,17.64,16.2,19.44,11.5,52.7,1017.72,0,0,0,0,0.033112
2022/06/13 01:18:00.000,n,120,2.16,1.44,2.88,11.5,53.1,1017.72,0,0,0,0,0.033112
2022/06/13 01:19:00.000,n,305,1.08,0.36,2.16,11.4,53.3,1017.72,0,0,0,0,0.031395
2022/06/13 01:20:00.010,n,267,7.92,5.04,10.440002,11.4,53.1,1017.72,0,0,0,0,0.033112
2022/06/13 01:21:00.007,n,286,5.76,4.32,6.48,11.4,53.3,1017.72,0,0,0,0,0.028763
2022/06/13 01:22:00.000,n,112,1.8,1.44,1.8,11.3,53.5,1017.72,0,0,0,0,0.031395
2022/06/13 01:23:00.000,n,52,1.08,0.72,1.44,11.3,53.8,1017.62,0,0,0,0,0.033989
2022/06/13 01:24:00.000,n,290,6.48,5.76,7.2,11.3,53.8,1017.72,0,0,0,0,0.030518
2022/06/13 01:25:00.000,n,305,1.08,0.72,1.08,11.2,53.9,1017.72,0,0,0,0,0.034866
2022/06/13 01:26:00.008,n,295,2.16,1.44,2.88,11.2,53.9,1017.62,0,0,0,0,0.035744
2022/06/13 01:27:00.005,n,238,1.08,1.08,1.44,11.1,54.2,1017.72,0,0,0,0,0.032234
2022/06/13 01:28:00.002,n,280,3.96,3.24,5.04,11.1,54.3,1017.62,0,0,0,0,0.031395
2022/06/13 01:29:00.000,n,271,6.12,4.68,7.56,11.1,54.3,1017.62,0,0,0,0,0.035744
2022/06/13 01:30:00.013,n,205,2.52,2.16,2.88,11.1,54.4,1017.62,0,0,0,0,0.033112
2022/06/13 01:31:00.000,n,251,6.48,3.96,7.56,11.1,54.5,1017.62,0,0,0,0,0.032234
2022/06/13 01:32:00.000,n,261,3.24,2.52,3.96,11,54.6,1017.62,0,0,0,0,0.033112
2022/06/13 01:33:00.004,n,245,2.52,1.08,3.96,11,54.6,1017.62,0,0,0,0,0.035744
2022/06/13 01:34:00.001,n,253,7.92,6.48,9.36,11,54.6,1017.62,0,0,0,0,0.032234
2022/06/13 01:35:00.000,n,229,2.88,2.52,3.24,11,54.7,1017.62,0,0,0,0,0.033989
2022/06/13 01:36:00.000,n,249,3.6,2.16,4.68,11,54.8,1017.72,0,0,0,0,0.032234
2022/06/13 01:37:00.008,n,275,1.8,1.44,2.16,11,54.8,1017.72,0,0,0,0,0.032234
2022/06/13 01:38:00.006,n,238,3.96,3.24,4.68,11,55,1017.72,0,0,0,0,0.030518
2022/06/13 01:39:00.003,n,260,2.88,2.16,3.6,11,55.3,1017.72,0,0,0,0,0.031395
2022/06/13 01:40:00.001,n,201,3.96,3.24,4.68,10.9,55,1017.62,0,0,0,0,0.033989
2022/06/13 01:41:00.000,n,272,5.4,4.68,5.76,10.9,55,1017.62,0,0,0,0,0.033112
2022/06/13 01:42:00.000,n,271,8.28,6.48,9.72,10.9,54.9,1017.62,0,0,0,0,0.033112
2022/06/13 01:43:00.000,n,304,3.6,2.52,5.4,10.9,55.3,1017.52,0,0,0,0,0.032234
2022/06/13 01:44:00.006,n,274,2.88,2.52,2.88,10.9,55.3,1017.52,0,0,0,0,0.033112
2022/06/13 01:45:00.003,n,259,2.52,2.16,3.24,10.9,55.3,1017.52,0,0,0,0,0.030518
2022/06/13 01:46:00.000,n,256,7.2,6.48,8.28,10.9,55.2,1017.42,0,0,0,0,0.028763
2022/06/13 01:47:00.013,n,178,1.44,0.72,2.88,10.9,55.3,1017.42,0,0,0,0,0.029602
2022/06/13 01:48:00.010,n,261,6.48,6.12,6.84,10.9,55.3,1017.42,0,0,0,0,0.028763
2022/06/13 01:49:00.000,n,253,5.76,5.04,6.12,10.8,55.5,1017.42,0,0,0,0,0.033112
2022/06/13 01:50:00.000,n,285,6.48,5.76,7.2,10.8,55.5,1017.42,0,0,0,0,0.029602
2022/06/13 01:51:00.000,n,287,5.04,3.24,6.84,10.8,55.6,1017.42,0,0,0,0,0.032234
2022/06/13 01:52:00.000,n,223,2.88,2.52,3.6,10.8,55.8,1017.42,0,0,0,0,0.030518
2022/06/13 01:53:00.000,n,270,4.32,3.6,5.4,10.8,55.7,1017.42,0,0,0,0,0.028763
2022/06/13 01:54:00.008,n,243,2.52,1.44,3.24,10.8,55.7,1017.42,0,0,0,0,0.029602
2022/06/13 01:55:00.005,n,250,4.32,2.88,5.76,10.8,55.9,1017.52,0,0,0,0,0.028763
2022/06/13 01:56:00.002,n,274,6.48,6.12,7.2,10.8,55.7,1017.52,0,0,0,0,0.029602
2022/06/13 01:57:00.015,n,224,1.08,0,2.52,10.8,55.9,1017.52,0,0,0,0,0.028763
2022/06/13 01:58:00.000,n,325,1.8,1.08,2.16,10.8,56.2,1017.52,0,0,0,0,0.027008
2022/06/13 01:59:00.000,n,304,5.76,5.04,6.84,10.7,56.3,1017.52,0,0,0,0,0.026169
2022/06/13 02:00:00.000,n,242,3.96,3.6,4.32,10.7,56.2,1017.52,0,0,0,0,0.027885
2022/06/13 02:01:00.004,n,255,5.04,4.68,5.4,10.7,56.2,1017.52,0,0,0,0,0.027008
2022/06/13 02:02:00.002,n,265,4.32,3.6,5.04,10.7,56.3,1017.52,0,0,0,0,0.025253
2022/06/13 02:03:00.000,n,254,5.4,5.04,6.12,10.7,56.3,1017.52,0,0,0,0,0.027885
2022/06/13 02:04:00.012,n,249,1.44,1.08,2.16,10.7,56.4,1017.52,0,0,0,0,0.029602
2022/06/13 02:05:00.009,n,248,4.32,3.24,5.04,10.6,56.5,1017.52,0,0,0,0,0.026169
2022/06/13 02:06:00.008,n,251,3.96,3.24,5.04,10.6,56.6,1017.42,0,0,0,0,0.027008
2022/06/13 02:07:00.000,n,119,1.08,0.72,1.44,10.6,56.7,1017.52,0,0,0,0,0.028763
2022/06/13 02:08:00.001,n,229,1.8,1.44,2.52,10.6,56.7,1017.42,0,0,0,0,0.026169
2022/06/13 02:09:00.000,n,190,0.72,0.36,1.08,10.6,56.7,1017.42,0,0,0,0,0.027008
2022/06/13 02:10:00.000,n,211,1.8,1.44,1.8,10.6,57.4,1017.42,0,0,0,0,0.025253
2022/06/13 02:11:00.000,n,156,2.16,1.44,2.88,10.6,56.9,1017.42,0,0,0,0,0.025253
2022/06/13 02:12:00.006,n,234,2.16,1.8,2.52,10.6,57,1017.42,0,0,0,0,0.024414
2022/06/13 02:13:00.003,n,240,1.8,1.8,2.16,10.5,57.1,1017.32,0,0,0,0,0.023537
2022/06/13 02:14:00.000,n,234,2.52,2.16,2.88,10.5,57,1017.32,0,0,0,0,0.024414
2022/06/13 02:15:00.014,n,268,3.6,3.24,4.32,10.5,57.1,1017.32,0,0,0,0,0.025253
2022/06/13 02:16:00.000,n,253,2.88,2.52,3.24,10.5,57.2,1017.32,0,0,0,0,0.020905
2022/06/13 02:17:00.000,n,238,1.08,0.72,1.08,10.5,57.2,1017.32,0,0,0,0,0.024414
2022/06/13 02:18:00.000,n,222,1.08,0.36,1.8,10.4,57.4,1017.42,0,0,0,0,0.030518
2022/06/13 02:19:00.002,n,247,2.16,1.8,2.52,10.4,57.5,1017.42,0,0,0,0,0.034866
2022/06/13 02:20:00.000,n,282,3.24,1.08,6.12,10.4,57.5,1017.42,0,0,0,0,0.033989
2022/06/13 02:21:00.000,n,113,1.08,0.36,1.44,10.4,57.6,1017.42,0,0,0,0,0.033989
2022/06/13 02:22:00.010,n,239,3.96,3.6,4.68,10.4,57.7,1017.42,0,0,0,0,0.028725
2022/06/13 02:23:00.007,n,278,1.8,1.08,3.24,10.4,57.7,1017.42,0,0,0,0,0.032234
2022/06/13 02:24:00.004,n,327,2.16,0.36,4.32,10.4,57.8,1017.42,0,0,0,0,0.033989
2022/06/13 02:25:00.001,n,274,4.32,3.6,4.68,10.4,57.8,1017.42,0,0,0,0,0.032234
2022/06/13 02:26:00.000,n,245,2.88,1.8,3.6,10.4,57.9,1017.42,0,0,0,0,0.031357
2022/06/13 02:27:00.000,n,271,0.72,0.36,1.08,10.4,58,1017.32,0,0,0,0,0.031357
2022/06/13 02:28:00.000,n,162,2.16,1.8,2.16,10.4,58.2,1017.32,0,0,0,0,0.031357
2022/06/13 02:29:00.005,n,201,3.6,2.88,4.32,10.4,58.2,1017.32,0,0,0,0,0.026131
2022/06/13 02:30:00.002,n,232,1.44,1.08,1.8,10.4,58.2,1017.32,0,0,0,0,0.02964
2022/06/13 02:31:00.000,n,242,3.96,2.52,6.12,10.4,58.3,1017.32,0,0,0,0,0.030518
2022/06/13 02:32:00.013,n,247,0.72,0.36,1.08,10.4,58.5,1017.22,0,0,0,0,0.028725
2022/06/13 02:33:00.010,n,129,1.44,0.72,1.8,10.4,58.6,1017.22,0,0,0,0,0.02964
2022/06/13 02:34:00.000,n,232,2.16,1.8,3.24,10.4,58.5,1017.22,0,0,0,0,0.028725
2022/06/13 02:35:00.000,n,278,4.68,3.96,5.4,10.4,58.6,1017.22,0,0,0,0,0.025291
2022/06/13 02:36:00.001,n,238,1.8,1.44,2.52,10.4,58.8,1017.22,0,0,0,0,0.024376
2022/06/13 02:37:00.000,n,305,0.72,0.36,1.08,10.4,58.9,1017.22,0,0,0,0,0.027885
2022/06/13 02:38:00.008,n,214,2.16,1.44,3.24,10.4,58.6,1017.22,0,0,0,0,0.032234
2022/06/13 02:39:00.006,n,238,3.96,3.6,4.32,10.4,58.6,1017.22,0,0,0,0,0.035667
2022/06/13 02:40:00.002,n,244,0.36,0.36,0.36,10.4,58.6,1017.22,0,0,0,0,0.036583
2022/06/13 02:41:00.000,n,50,1.08,0.72,1.08,10.4,59,1017.22,0,0,0,0,0.030479
2022/06/13 02:42:00.014,n,154,1.08,1.08,1.44,10.3,58.9,1017.22,0,0,0,0,0.031319
2022/06/13 02:43:00.000,n,152,2.16,0.36,3.24,10.3,59.1,1017.22,0,0,0,0,0.036583
2022/06/13 02:44:00.000,n,284,2.52,2.16,3.6,10.3,59.2,1017.22,0,0,0,0,0.033112
2022/06/13 02:45:00.000,n,239,1.8,1.44,2.16,10.3,59.3,1017.12,0,0,0,0,0.035667
2022/06/13 02:46:00.002,n,65,0.72,0.36,1.08,10.3,59.4,1017.12,0,0,0,0,0.032234
2022/06/13 02:47:00.000,n,243,2.16,1.8,2.16,10.3,59.5,1017.22,0,0,0,0,0.032234
2022/06/13 02:48:00.000,n,340,1.44,1.08,2.16,10.3,59.6,1017.22,0,0,0,0,0.034828
2022/06/13 02:49:00.010,n,249,9.36,7.92,10.08,10.2,59.6,1017.22,0,0,0,0,0.035667
2022/06/13 02:50:00.008,n,229,4.32,3.6,4.68,10.2,59.9,1017.32,0,0,0,0,0.030479
2022/06/13 02:51:00.005,n,252,9.36,7.92,11.16,10.2,59.7,1017.32,0,0,0,0,0.030479
2022/06/13 02:52:00.000,n,237,5.4,4.68,6.48,10.2,59.7,1017.32,0,0,0,0,0.027885
2022/06/13 02:53:00.000,n,263,4.32,3.24,4.68,10.3,59.9,1017.42,0,0,0,0,0.031319
2022/06/13 02:54:00.000,n,230,4.68,4.32,5.4,10.2,59.8,1017.42,0,0,0,0,0.030479
2022/06/13 02:55:00.000,n,291,6.12,4.32,6.84,10.2,59.8,1017.42,0,0,0,0,0.030479
2022/06/13 02:56:00.009,n,230,3.96,3.96,4.32,10.2,59.9,1017.42,0,0,0,0,0.029602
2022/06/13 02:57:00.006,n,219,3.24,2.52,4.68,10.2,59.8,1017.52,0,0,0,0,0.032234
2022/06/13 02:58:00.003,n,245,3.24,2.16,3.96,10.2,59.8,1017.52,0,0,0,0,0.028725
2022/06/13 02:59:00.001,n,267,5.4,3.6,6.12,10.2,59.9,1017.52,0,0,0,0,0.031319
2022/06/13 03:00:00.014,n,248,8.28,6.84,9,10.2,59.6,1017.52,0,0,0,0,0.030479
2022/06/13 03:01:00.000,n,263,5.76,5.4,6.12,10.2,59.5,1017.52,0,0,0,0,0.029602
2022/06/13 03:02:00.000,n,264,12.96,10.8,14.4,10.2,59.3,1017.52,0,0,0,0,0.027885
2022/06/13 03:03:00.000,n,277,7.2,6.84,7.92,10.2,59.4,1017.52,0,0,0,0,0.032234
2022/06/13 03:04:00.003,n,257,10.8,9.72,12.96,10.2,59.4,1017.42,0,0,0,0,0.027885
2022/06/13 03:05:00.000,n,271,3.96,2.52,5.04,10.2,59.5,1017.42,0,0,0,0,0.029602
2022/06/13 03:06:00.000,n,256,10.08,9,10.8,10.1,59.5,1017.42,0,0,0,0,0.030479
2022/06/13 03:07:00.011,n,257,3.96,2.88,4.32,10.1,59.7,1017.42,0,0,0,0,0.02697
2022/06/13 03:08:00.009,n,285,2.16,0.72,3.6,10.1,59.8,1017.42,0,0,0,0,0.030479
2022/06/13 03:09:00.005,n,228,3.96,3.24,6.48,10.1,59.7,1017.42,0,0,0,0,0.032234
2022/06/13 03:10:00.000,n,330,2.16,0.72,2.88,10.1,59.9,1017.42,0,0,0,0,0.028725
2022/06/13 03:11:00.000,n,277,3.24,1.8,3.96,10.1,59.9,1017.42,0,0,0,0,0.029602
2022/06/13 03:12:00.000,n,262,8.64,3.24,11.16,10,59.7,1017.42,0,0,0,0,0.026131
2022/06/13 03:13:00.000,n,242,4.32,3.6,4.68,10,59.9,1017.42,0,0,0,0,0.027885
2022/06/13 03:14:00.000,n,270,8.64,6.48,10.440002,10,59.6,1017.42,0,0,0,0,0.028725
2022/06/13 03:15:00.004,n,251,10.08,9.72,11.16,10,59.6,1017.42,0,0,0,0,0.027885
2022/06/13 03:16:00.001,n,270,4.32,3.96,4.68,10,59.8,1017.42,0,0,0,0,0.029602
2022/06/13 03:17:00.000,n,246,1.44,0.36,2.52,10,59.8,1017.42,0,0,0,0,0.02697
2022/06/13 03:18:00.011,n,270,3.96,2.88,5.4,10,59.8,1017.42,0,0,0,0,0.029602
2022/06/13 03:19:00.000,n,266,3.96,3.24,4.68,10,59.9,1017.52,0,0,0,0,0.028725
2022/06/13 03:20:00.000,n,298,5.04,4.32,5.76,10,59.9,1017.52,0,0,0,0,0.026131
2022/06/13 03:21:00.004,n,307,0.72,0.36,2.16,10,60.1,1017.52,0,0,0,0,0.029602
2022/06/13 03:22:00.002,n,296,2.88,2.16,3.96,10,60.1,1017.52,0,0,0,0,0.030479
2022/06/13 03:23:00.000,n,279,3.24,2.52,3.96,9.9,60.3,1017.52,0,0,0,0,0.028725
2022/06/13 03:24:00.004,n,278,6.48,5.76,7.2,9.9,60.1,1017.52,0,0,0,0,0.027885
2022/06/13 03:25:00.009,n,261,6.48,6.12,8.28,9.9,60.2,1017.52,0,0,0,0,0.024376
2022/06/13 03:26:00.000,n,253,9.36,6.84,11.52,9.9,59.9,1017.52,0,0,0,0,0.026131
2022/06/13 03:27:00.003,n,262,4.68,3.24,6.48,9.9,60,1017.52,0,0,0,0,0.02697
2022/06/13 03:28:00.000,n,227,2.16,1.44,2.52,9.9,60.1,1017.52,0,0,0,0,0.02697
2022/06/13 03:29:00.000,n,274,3.96,2.88,5.76,9.9,60,1017.52,0,0,0,0,0.025253
2022/06/13 03:30:00.001,n,250,3.6,2.52,4.68,9.9,60,1017.52,0,0,0,0,0.026131
2022/06/13 03:31:00.006,n,253,2.88,1.8,3.96,9.9,60.2,1017.52,0,0,0,0,0.026131
2022/06/13 03:32:00.000,n,283,2.52,1.8,2.88,9.9,60,1017.52,0,0,0,0,0.024376
2022/06/13 03:33:00.000,n,250,1.08,0.72,1.08,9.9,60.2,1017.52,0,0,0,0,0.02697
2022/06/13 03:34:00.004,n,281,5.4,5.04,6.12,9.9,60.1,1017.62,0,0,0,0,0.02697
2022/06/13 03:35:00.010,n,258,2.52,2.52,2.88,9.9,60.3,1017.62,0,0,0,0,0.027885
2022/06/13 03:36:00.012,n,121,0.72,0.36,0.72,9.9,60.3,1017.62,0,0,0,0,0.032234
2022/06/13 03:37:00.001,n,289,2.88,2.16,4.32,9.9,60.3,1017.62,0,0,0,0,0.035744
2022/06/13 03:38:00.000,n,232,2.52,1.8,3.24,9.9,60.4,1017.62,0,0,0,0,0.033989
2022/06/13 03:39:00.000,n,212,2.52,1.8,3.24,9.9,60.4,1017.62,0,0,0,0,0.031395
2022/06/13 03:40:00.000,n,261,4.68,2.16,7.2,9.9,60.3,1017.62,0,0,0,0,0.033112
2022/06/13 03:41:00.006,n,252,5.04,1.44,7.2,9.9,60.2,1017.62,0,0,0,0,0.034866
2022/06/13 03:42:00.000,n,258,2.52,2.16,2.88,9.9,60.2,1017.62,0,0,0,0,0.030479
2022/06/13 03:43:00.000,n,276,5.04,4.32,6.12,9.9,60.2,1017.62,0,0,0,0,0.029602
2022/06/13 03:44:00.005,n,154,2.88,1.8,4.32,9.9,60.5,1017.62,0,0,0,0,0.033989
2022/06/13 03:45:00.010,n,21,0.36,0,0.36,9.9,60.4,1017.62,0,0,0,0,0.030479
2022/06/13 03:46:00.000,n,202,1.44,0.72,2.16,10,60.3,1017.62,0,0,0,0,0.031395
2022/06/13 03:47:00.000,n,287,5.04,4.68,5.4,10,60.3,1017.62,0,0,0,0,0.033989
2022/06/13 03:48:00.000,n,269,3.96,3.24,4.68,10,60.1,1017.72,0,0,0,0,0.033112
2022/06/13 03:49:00.006,n,276,5.04,4.32,5.4,10,60.3,1017.72,0,0,0,0,0.033112
2022/06/13 03:50:00.003,n,205,2.88,2.52,3.6,10,60.3,1017.72,0,0,0,0,0.033112
2022/06/13 03:51:00.000,n,311,3.6,3.24,5.4,10,60.6,1017.72,0,0,0,0,0.029602
2022/06/13 03:52:00.000,n,223,1.44,0.72,2.16,10,60.5,1017.72,0,0,0,0,0.033989
2022/06/13 03:53:00.011,n,245,5.76,5.04,6.12,10,60.5,1017.72,0,0,0,0,0.033989
2022/06/13 03:54:00.008,n,253,2.52,1.8,3.24,10,60.3,1017.72,0,0,0,0,0.029602
2022/06/13 03:55:00.000,n,299,3.24,2.16,3.6,10,60.3,1017.72,0,0,0,0,0.031395
2022/06/13 03:56:00.000,n,305,1.44,0.36,2.88,10,60.3,1017.72,0,0,0,0,0.032234
2022/06/13 03:57:00.000,n,171,2.88,1.8,4.32,10,60.4,1017.72,0,0,0,0,0.028763
2022/06/13 03:58:00.000,n,181,1.8,1.08,2.52,10,60.4,1017.72,0,0,0,0,0.033112
2022/06/13 03:59:00.000,n,169,1.08,0.72,1.44,10.1,60.6,1017.72,0,0,0,0,0.033112
2022/06/13 04:00:00.007,n,288,4.32,2.88,4.68,10.1,60.5,1017.72,0,0,0,0,0.033989
2022/06/13 04:01:00.004,n,227,1.08,0.36,1.44,10.1,60.8,1017.72,0,0,0,0,0.035744
2022/06/13 04:02:00.001,n,219,3.6,3.24,3.96,10.1,60.8,1017.72,0,0,0,0,0.032234
2022/06/13 04:03:00.015,n,272,2.88,2.52,3.24,10.1,60.8,1017.72,0,0,0,0,0.033112
2022/06/13 04:04:00.000,n,232,0.72,0.36,1.44,10,61,1017.72,0,0,0,0,0.03746
2022/06/13 04:05:00.000,n,239,2.88,2.88,3.24,10,61,1017.72,0,0,0,0,0.036583
2022/06/13 04:06:00.000,n,178,1.08,0.36,2.16,10,61,1017.72,0,0,0,0,0.032234
2022/06/13 04:07:00.003,n,245,1.08,0.72,1.44,10,61.1,1017.72,0,0,0,0,0.033112
2022/06/13 04:08:00.000,n,218,2.52,2.16,2.52,10,61.2,1017.72,0,0,0,0,0.033989
2022/06/13 04:09:00.000,n,70,2.52,0.72,3.24,10,61.6,1017.72,0,0,0,0,0.033989
2022/06/13 04:10:00.010,n,0,0.36,0.36,0.72,10,61.6,1017.72,0,0,0,0,0.031395
2022/06/13 04:11:00.007,n,216,0.36,0.36,0.72,10,61.7,1017.82,0,0,0,0,0.033112
2022/06/13 04:12:00.005,n,117,2.16,1.8,2.52,10,61.6,1017.82,0,0,0,0,0.033112
2022/06/13 04:13:00.001,n,261,3.6,3.24,4.32,10,61.4,1017.72,0,0,0,0,0.035744
2022/06/13 04:14:00.000,n,214,1.44,0.36,2.16,10,61.4,1017.82,0,0,0,0,0.033989
2022/06/13 04:15:00.000,n,169,2.52,1.8,3.24,10,61.6,1017.72,0,0,0,0,0.032234
2022/06/13 04:16:00.000,n,320,1.8,1.44,2.16,10,61.6,1017.72,0,0,0,0,0.033989
2022/06/13 04:17:00.005,n,188,3.6,2.52,5.04,10,61.5,1017.72,0,0,0,0,0.033989
2022/06/13 04:18:00.003,n,239,3.24,2.88,3.6,10,61.3,1017.82,0,0,0,0,0.033989
2022/06/13 04:19:00.000,n,274,3.6,2.52,4.32,10,61.2,1017.72,0,0,0,0,0.035744
2022/06/13 04:20:00.012,n,282,3.96,3.6,4.32,10,61.2,1017.72,0,0,0,0,0.034866
2022/06/13 04:21:00.009,n,166,2.52,2.16,3.24,10,61.3,1017.72,0,0,0,0,0.034866
2022/06/13 04:22:00.000,n,257,1.8,1.44,1.8,10,61.4,1017.72,0,0,0,0,0.036583
2022/06/13 04:23:00.003,n,262,3.24,2.52,3.96,10,61.6,1017.72,0,0,0,0,0.032234
2022/06/13 04:24:00.000,n,179,1.8,0.36,2.88,10,61.8,1017.82,0,0,0,0,0.038338
2022/06/13 04:25:00.000,n,214,2.16,1.8,2.52,10,61.7,1017.82,0,0,0,0,0.038338
2022/06/13 04:26:00.000,n,265,3.96,3.24,5.4,10,61.7,1017.82,0,0,0,0,0.035744
2022/06/13 04:27:00.008,n,265,1.08,1.08,1.44,10,61.8,1017.82,0,0,0,0,0.038338
2022/06/13 04:28:00.005,n,118,2.16,0.36,4.68,10,61.8,1017.92,0,0,0,0,0.038338
2022/06/13 04:29:00.001,n,289,1.8,1.08,2.16,10,61.9,1017.92,0,0,0,0,0.035744
2022/06/13 04:30:00.015,n,305,2.52,1.8,3.96,10,61.8,1017.92,0,0,0,0,0.038338
2022/06/13 04:31:00.000,n,98,1.8,1.44,2.52,10,62,1017.92,0,0,0,0,0.039215
2022/06/13 04:32:00.000,n,269,5.04,4.68,5.4,10,61.9,1017.92,0,0,0,0,0.038338
2022/06/13 04:33:00.000,n,199,3.24,2.88,3.6,10,61.6,1017.92,0,0,0,0,0.034866
2022/06/13 04:34:00.003,n,214,0.72,0.36,1.44,10,61.7,1017.92,0,0,0,0,0.036583
2022/06/13 04:35:00.001,n,254,2.52,2.16,2.52,10,61.7,1017.92,0,0,0,0,0.040092
2022/06/13 04:36:00.000,n,279,2.88,2.52,2.88,10,61.7,1017.92,0,0,0,0,0.035744
2022/06/13 04:37:00.010,n,253,2.52,2.16,2.88,10,61.7,1017.92,0,0,0,0,0.03746
2022/06/13 04:38:00.007,n,194,3.24,2.16,3.96,10,61.8,1017.92,0,0,0,0,0.03746
2022/06/13 04:39:00.004,n,114,1.44,0.72,2.16,10,61.9,1017.92,0,0,0,0,0.036583
2022/06/13 04:40:00.002,n,292,5.4,4.32,6.48,10,61.8,1017.92,0,0,0,0,0.040092
2022/06/13 04:41:00.000,n,162,1.44,1.08,1.44,10,61.9,1017.92,0,0,0,0,0.040092
2022/06/13 04:42:00.000,n,276,1.8,1.44,2.88,9.9,62,1017.92,0,0,0,0,0.036583
2022/06/13 04:43:00.001,n,249,3.6,2.16,5.4,9.9,62.1,1017.92,0,0,0,0,0.035744
2022/06/13 04:44:00.006,n,189,2.52,2.16,3.24,9.9,62.1,1017.92,0,0,0,0,0.040092
2022/06/13 04:45:00.011,n,298,5.76,5.4,6.48,9.9,62.1,1017.92,0,0,0,0,0.036583
2022/06/13 04:46:00.000,n,309,2.88,0.36,5.04,9.9,62.1,1017.92,0,0,0,0,0.036583
2022/06/13 04:47:00.005,n,320,1.8,1.44,2.16,9.9,62.2,1017.92,0,0,0,0,0.040092
2022/06/13 04:48:00.010,n,257,3.24,0.36,4.68,9.9,62.1,1018.02,0,0,0,0,0.040092
2022/06/13 04:49:00.000,n,264,2.52,2.16,2.88,9.9,62.1,1018.02,0,0,0,0,0.040092
2022/06/13 04:50:00.000,n,229,2.88,2.16,4.32,9.9,61.9,1018.02,0,0,0,0,0.04097
2022/06/13 04:51:00.000,n,290,2.16,1.8,2.52,9.9,62,1018.02,0,0,0,0,0.03746
2022/06/13 04:52:00.000,n,265,4.32,3.6,4.68,10,62,1018.12,0,0,0,0,0.04097
2022/06/13 04:53:00.000,n,305,2.16,1.44,3.6,10,61.9,1018.12,0,0,0,0,0.041809
2022/06/13 04:54:00.008,n,251,4.68,3.96,4.68,10,62,1018.12,0,0,0,0,0.039215
2022/06/13 04:55:00.006,n,258,1.44,0.72,2.16,10,61.9,1018.12,0,0,0,0,0.043564
2022/06/13 04:56:00.002,n,249,2.16,1.44,2.16,10,61.9,1018.12,0,0,0,0,0.039215